| time (UTC) | temp C | wind direction | speed KPH | gust KPH | rain 1hr cm | rain 24hr cm | rain mn cm | humidity % | barometer mb |
| 20260508063502 | 4 | 91 | 3.2 | 8.0 | 0.00 | 0.03 | 0.00 | 82 | 1016.4 |
| 20260508062503 | 3 | 55 | 3.2 | 4.8 | 0.00 | 0.03 | 0.00 | 82 | 1016.6 |
| 20260508062003 | 3 | 49 | 0.0 | 8.0 | 0.00 | 0.03 | 0.00 | 82 | 1016.6 |
| 20260508061503 | 3 | 50 | 1.6 | 8.0 | 0.00 | 0.03 | 0.00 | 80 | 1016.5 |
| 20260508061003 | 4 | 6 | 1.6 | 4.8 | 0.00 | 0.03 | 0.00 | 80 | 1016.4 |
| 20260508060003 | 4 | 6 | 1.6 | 3.2 | 0.00 | 0.03 | 0.00 | 81 | 1016.5 |
| 20260508055503 | 5 | 9 | 3.2 | 3.2 | 0.00 | 0.03 | 0.00 | 80 | 1016.5 |
| 20260508055003 | 5 | 10 | 3.2 | 3.2 | 0.00 | 0.03 | 0.00 | 80 | 1016.4 |
| 20260508054003 | 5 | 0 | 0.0 | 3.2 | 0.00 | 0.03 | 0.00 | 80 | 1016.3 |
| 20260508053503 | 5 | 12 | 3.2 | 4.8 | 0.00 | 0.03 | 0.00 | 81 | 1016.3 |
| 20260508053004 | 5 | 0 | 0.0 | 9.7 | 0.00 | 0.03 | 0.00 | 81 | 1016.4 |
| 20260508052503 | 5 | 7 | 3.2 | 9.7 | 0.00 | 0.03 | 0.00 | 81 | 1016.3 |
| 20260508052003 | 5 | 0 | 0.0 | 1.6 | 0.00 | 0.03 | 0.00 | 82 | 1016.2 |
| 20260508051002 | 5 | 332 | 3.2 | 8.0 | 0.00 | 0.03 | 0.00 | 80 | 1016.1 |
| 20260508050503 | 5 | 326 | 1.6 | 4.8 | 0.00 | 0.03 | 0.00 | 80 | 1016.0 |
| 20260508050003 | 5 | 336 | 1.6 | 3.2 | 0.00 | 0.03 | 0.00 | 81 | 1016.0 |
| 20260508045002 | 5 | 0 | 0.0 | 3.2 | 0.00 | 0.03 | 0.00 | 81 | 1015.8 |
| 20260508044503 | 5 | 336 | 0.0 | 3.2 | 0.00 | 0.03 | 0.00 | 81 | 1015.8 |
| 20260508044002 | 5 | 336 | 1.6 | 3.2 | 0.00 | 0.03 | 0.00 | 80 | 1015.7 |
| 20260508043504 | 6 | 331 | 1.6 | 4.8 | 0.00 | 0.03 | 0.00 | 79 | 1015.7 |
| 20260508043005 | 6 | 331 | 0.0 | 4.8 | 0.00 | 0.03 | 0.00 | 79 | 1015.6 |
| 20260508042002 | 6 | 324 | 1.6 | 11.3 | 0.00 | 0.03 | 0.00 | 79 | 1015.6 |
| 20260508041504 | 6 | 323 | 4.8 | 11.3 | 0.00 | 0.03 | 0.00 | 78 | 1015.6 |
| 20260508041003 | 6 | 3 | 3.2 | 8.0 | 0.00 | 0.03 | 0.00 | 79 | 1015.6 |
| 20260508040502 | 6 | 264 | 3.2 | 4.8 | 0.00 | 0.03 | 0.00 | 78 | 1015.6 |
| 20260508040012 | 6 | 332 | 0.0 | 8.0 | 0.00 | 0.03 | 0.00 | 79 | 1015.5 |
| 20260508035503 | 6 | 0 | 0.0 | 8.0 | 0.00 | 0.03 | 0.03 | 79 | 1015.4 |
| 20260508035003 | 6 | 339 | 1.6 | 11.3 | 0.00 | 0.03 | 0.03 | 79 | 1015.3 |
| 20260508034502 | 6 | 346 | 4.8 | 11.3 | 0.00 | 0.03 | 0.03 | 79 | 1015.2 |
| 20260508034003 | 7 | 1 | 1.6 | 4.8 | 0.00 | 0.03 | 0.03 | 79 | 1015.2 |
| 20260508033503 | 7 | 1 | 0.0 | 14.5 | 0.00 | 0.03 | 0.03 | 78 | 1015.4 |
| 20260508033003 | 7 | 312 | 6.4 | 14.5 | 0.00 | 0.03 | 0.03 | 77 | 1015.4 |
| 20260508032503 | 7 | 338 | 1.6 | 4.8 | 0.00 | 0.03 | 0.03 | 78 | 1015.4 |
| 20260508032003 | 7 | 338 | 3.2 | 8.0 | 0.00 | 0.03 | 0.03 | 77 | 1015.4 |
| 20260508031503 | 7 | 338 | 1.6 | 8.0 | 0.00 | 0.03 | 0.03 | 76 | 1015.4 |
| 20260508030503 | 7 | 12 | 9.7 | 14.5 | 0.00 | 0.05 | 0.03 | 76 | 1015.2 |
| 20260508030004 | 7 | 329 | 4.8 | 12.9 | 0.00 | 0.05 | 0.03 | 75 | 1015.2 |
| 20260508025003 | 8 | 341 | 3.2 | 4.8 | 0.00 | 0.05 | 0.03 | 76 | 1015.0 |
| 20260508024503 | 8 | 341 | 4.8 | 4.8 | 0.00 | 0.05 | 0.03 | 75 | 1015.0 |
| 20260508024003 | 8 | 341 | 3.2 | 11.3 | 0.00 | 0.05 | 0.03 | 74 | 1015.0 |
| 20260508023502 | 8 | 339 | 3.2 | 19.3 | 0.00 | 0.08 | 0.03 | 72 | 1014.9 |
| 20260508023004 | 8 | 311 | 12.9 | 19.3 | 0.00 | 0.08 | 0.03 | 72 | 1015.0 |
| 20260508022003 | 8 | 24 | 9.7 | 14.5 | 0.00 | 0.23 | 0.03 | 74 | 1014.9 |
| 20260508021503 | 8 | 343 | 0.0 | 9.7 | 0.00 | 0.25 | 0.03 | 75 | 1014.8 |
| 20260508021002 | 8 | 316 | 3.2 | 12.9 | 0.00 | 0.28 | 0.03 | 74 | 1014.7 |
| 20260508020503 | 8 | 316 | 4.8 | 12.9 | 0.00 | 0.30 | 0.03 | 75 | 1014.6 |
| 20260508020004 | 8 | 332 | 4.8 | 14.5 | 0.00 | 0.36 | 0.03 | 76 | 1014.5 |
| 20260508015502 | 8 | 355 | 4.8 | 14.5 | 0.00 | 0.41 | 0.03 | 76 | 1014.4 |
| 20260508015003 | 8 | 331 | 1.6 | 8.0 | 0.00 | 0.41 | 0.03 | 76 | 1014.3 |
| 20260508014504 | 8 | 46 | 3.2 | 4.8 | 0.00 | 0.41 | 0.03 | 77 | 1014.3 |
| 20260508013503 | 8 | 331 | 1.6 | 16.1 | 0.00 | 0.41 | 0.03 | 76 | 1014.2 |
| 20260508013004 | 8 | 36 | 4.8 | 8.0 | 0.00 | 0.41 | 0.03 | 75 | 1013.9 |
| 20260508012502 | 8 | 27 | 3.2 | 9.7 | 0.00 | 0.41 | 0.03 | 75 | 1013.8 |
| 20260508012003 | 8 | 24 | 3.2 | 9.7 | 0.00 | 0.41 | 0.03 | 75 | 1013.9 |
| 20260508011503 | 8 | 331 | 4.8 | 9.7 | 0.00 | 0.41 | 0.03 | 75 | 1013.9 |
| 20260508010004 | 10 | 346 | 6.4 | 22.5 | 0.00 | 0.41 | 0.03 | 72 | 1013.7 |
| 20260508005502 | 9 | 3 | 8.0 | 11.3 | 0.00 | 0.41 | 0.03 | 73 | 1013.7 |
| 20260508005003 | 9 | 5 | 4.8 | 9.7 | 0.00 | 0.41 | 0.03 | 72 | 1013.6 |
| 20260508004503 | 10 | 9 | 6.4 | 20.9 | 0.00 | 0.41 | 0.03 | 72 | 1013.7 |
| 20260508004002 | 9 | 356 | 11.3 | 20.9 | 0.00 | 0.41 | 0.03 | 73 | 1013.7 |
| 20260508003503 | 10 | 22 | 3.2 | 11.3 | 0.00 | 0.41 | 0.03 | 73 | 1013.7 |
| 20260508003004 | 10 | 46 | 8.0 | 9.7 | 0.00 | 0.41 | 0.03 | 73 | 1013.6 |
| 20260508002503 | 10 | 64 | 3.2 | 8.0 | 0.00 | 0.41 | 0.03 | 73 | 1013.5 |
| 20260508001504 | 11 | 290 | 6.4 | 16.1 | 0.00 | 0.41 | 0.03 | 67 | 1013.5 |
| 20260508001003 | 11 | 273 | 9.7 | 16.1 | 0.00 | 0.41 | 0.03 | 67 | 1013.5 |
| 20260508000504 | 11 | 293 | 4.8 | 19.3 | 0.00 | 0.41 | 0.03 | 67 | 1013.5 |
| 20260508000003 | 11 | 338 | 8.0 | 19.3 | 0.00 | 0.41 | 0.03 | 67 | 1013.4 |
| 20260507234503 | 12 | 286 | 12.9 | 20.9 | 0.00 | 0.41 | 0.03 | 65 | 1013.3 |
| 20260507234002 | 12 | 290 | 11.3 | 24.1 | 0.00 | 0.41 | 0.03 | 64 | 1013.2 |
| 20260507233503 | 12 | 322 | 14.5 | 24.1 | 0.00 | 0.41 | 0.03 | 64 | 1013.1 |
| 20260507233004 | 12 | 345 | 6.4 | 22.5 | 0.00 | 0.41 | 0.03 | 65 | 1013.1 |
| 20260507232503 | 12 | 308 | 12.9 | 22.5 | 0.00 | 0.41 | 0.03 | 66 | 1013.1 |
| 20260507232002 | 12 | 316 | 16.1 | 25.7 | 0.00 | 0.41 | 0.03 | 67 | 1013.0 |
| 20260507231504 | 12 | 316 | 8.0 | 25.7 | 0.00 | 0.41 | 0.03 | 68 | 1012.8 |
| 20260507231003 | 12 | 304 | 4.8 | 19.3 | 0.00 | 0.41 | 0.03 | 67 | 1012.8 |
| 20260507230503 | 12 | 246 | 8.0 | 20.9 | 0.00 | 0.41 | 0.03 | 66 | 1012.8 |
| 20260507230003 | 12 | 313 | 8.0 | 24.1 | 0.00 | 0.41 | 0.03 | 68 | 1012.7 |
| 20260507225503 | 13 | 358 | 11.3 | 27.4 | 0.00 | 0.41 | 0.03 | 68 | 1012.7 |
| 20260507225003 | 13 | 321 | 16.1 | 27.4 | 0.00 | 0.41 | 0.03 | 69 | 1012.6 |
| 20260507224003 | 13 | 2 | 17.7 | 24.1 | 0.00 | 0.41 | 0.03 | 70 | 1012.5 |
| 20260507223003 | 13 | 335 | 16.1 | 25.7 | 0.00 | 0.41 | 0.03 | 69 | 1012.4 |
| 20260507222503 | 13 | 325 | 16.1 | 24.1 | 0.00 | 0.41 | 0.03 | 69 | 1012.4 |
| 20260507221503 | 14 | 265 | 14.5 | 22.5 | 0.00 | 0.41 | 0.03 | 68 | 1012.3 |
| 20260507221003 | 14 | 341 | 8.0 | 22.5 | 0.00 | 0.41 | 0.03 | 69 | 1012.2 |
| 20260507220503 | 14 | 307 | 12.9 | 22.5 | 0.00 | 0.41 | 0.03 | 66 | 1012.2 |
| 20260507220004 | 14 | 322 | 11.3 | 20.9 | 0.00 | 0.41 | 0.03 | 67 | 1012.1 |
| 20260507215003 | 15 | 327 | 11.3 | 24.1 | 0.00 | 0.41 | 0.03 | 71 | 1012.1 |
| 20260507214503 | 14 | 252 | 14.5 | 25.7 | 0.00 | 0.41 | 0.03 | 70 | 1012.1 |
| 20260507214002 | 14 | 295 | 11.3 | 25.7 | 0.00 | 0.41 | 0.03 | 70 | 1012.0 |
| 20260507213503 | 14 | 315 | 12.9 | 35.4 | 0.00 | 0.41 | 0.03 | 71 | 1012.0 |
| 20260507213004 | 14 | 277 | 24.1 | 35.4 | 0.00 | 0.41 | 0.03 | 68 | 1012.1 |
| 20260507212503 | 14 | 247 | 14.5 | 24.1 | 0.00 | 0.41 | 0.03 | 71 | 1012.2 |
| 20260507212003 | 14 | 262 | 9.7 | 25.7 | 0.00 | 0.41 | 0.03 | 73 | 1012.1 |
| 20260507211504 | 14 | 274 | 16.1 | 25.7 | 0.00 | 0.41 | 0.03 | 72 | 1012.0 |
| 20260507211003 | 14 | 270 | 12.9 | 32.2 | 0.00 | 0.41 | 0.03 | 75 | 1012.0 |
| 20260507210503 | 13 | 283 | 8.0 | 32.2 | 0.00 | 0.41 | 0.03 | 77 | 1012.0 |
| 20260507205503 | 13 | 339 | 8.0 | 25.7 | 0.00 | 0.41 | 0.03 | 77 | 1011.8 |
| 20260507204504 | 13 | 325 | 11.3 | 24.1 | 0.00 | 0.41 | 0.03 | 76 | 1011.7 |
| 20260507204003 | 13 | 325 | 11.3 | 24.1 | 0.00 | 0.41 | 0.03 | 79 | 1011.8 |
| 20260507203503 | 13 | 342 | 4.8 | 16.1 | 0.00 | 0.41 | 0.03 | 78 | 1011.7 |
| 20260507203004 | 13 | 303 | 6.4 | 20.9 | 0.00 | 0.41 | 0.03 | 79 | 1011.7 |
| 20260507202503 | 13 | 337 | 9.7 | 22.5 | 0.00 | 0.41 | 0.03 | 78 | 1011.8 |
| 20260507202004 | 13 | 272 | 12.9 | 25.7 | 0.00 | 0.41 | 0.03 | 79 | 1011.8 |
| 20260507201503 | 13 | 323 | 9.7 | 25.7 | 0.00 | 0.41 | 0.03 | 77 | 1011.8 |
| 20260507201004 | 13 | 325 | 9.7 | 16.1 | 0.00 | 0.41 | 0.03 | 81 | 1011.8 |
| 20260507200503 | 12 | 37 | 4.8 | 20.9 | 0.00 | 0.41 | 0.03 | 80 | 1011.9 |
| 20260507195503 | 12 | 346 | 6.4 | 16.1 | 0.00 | 0.41 | 0.03 | 82 | 1012.0 |
| 20260507195003 | 12 | 263 | 9.7 | 14.5 | 0.00 | 0.41 | 0.03 | 84 | 1012.2 |
| 20260507194504 | 12 | 318 | 9.7 | 19.3 | 0.00 | 0.41 | 0.03 | 82 | 1012.3 |
| 20260507194003 | 12 | 305 | 3.2 | 19.3 | 0.00 | 0.41 | 0.03 | 85 | 1012.3 |
| 20260507193502 | 11 | 225 | 6.4 | 12.9 | 0.00 | 0.41 | 0.03 | 87 | 1012.4 |
| 20260507193003 | 11 | 216 | 4.8 | 12.9 | 0.00 | 0.41 | 0.03 | 86 | 1012.5 |
| 20260507192504 | 11 | 226 | 6.4 | 12.9 | 0.00 | 0.41 | 0.03 | 88 | 1012.5 |
| 20260507192003 | 11 | 229 | 4.8 | 19.3 | 0.00 | 0.41 | 0.03 | 87 | 1012.7 |
| 20260507191504 | 11 | 257 | 12.9 | 19.3 | 0.00 | 0.41 | 0.03 | 86 | 1012.8 |
| 20260507191003 | 11 | 338 | 9.7 | 20.9 | 0.00 | 0.41 | 0.03 | 85 | 1012.7 |
| 20260507190503 | 11 | 277 | 11.3 | 20.9 | 0.00 | 0.41 | 0.03 | 84 | 1012.9 |
| 20260507190004 | 11 | 292 | 4.8 | 22.5 | 0.00 | 0.41 | 0.03 | 84 | 1012.7 |
| 20260507185503 | 11 | 6 | 6.4 | 22.5 | 0.00 | 0.41 | 0.03 | 85 | 1012.7 |
| 20260507185003 | 11 | 359 | 11.3 | 20.9 | 0.00 | 0.41 | 0.03 | 84 | 1012.8 |
| 20260507184504 | 11 | 4 | 11.3 | 20.9 | 0.00 | 0.41 | 0.03 | 84 | 1012.9 |
| 20260507183504 | 11 | 359 | 9.7 | 16.1 | 0.00 | 0.41 | 0.03 | 84 | 1012.9 |
| 20260507183005 | 11 | 24 | 4.8 | 12.9 | 0.00 | 0.41 | 0.03 | 85 | 1012.9 |
| 20260507182503 | 11 | 11 | 8.0 | 12.9 | 0.00 | 0.41 | 0.03 | 86 | 1012.8 |
| 20260507182003 | 11 | 324 | 1.6 | 14.5 | 0.00 | 0.41 | 0.03 | 86 | 1012.9 |
| 20260507181003 | 11 | 287 | 14.5 | 19.3 | 0.00 | 0.41 | 0.03 | 85 | 1012.9 |
| 20260507180503 | 11 | 321 | 8.0 | 14.5 | 0.03 | 0.41 | 0.03 | 87 | 1012.8 |
| 20260507175503 | 11 | 6 | 3.2 | 12.9 | 0.03 | 0.41 | 0.03 | 88 | 1013.1 |
| 20260507175003 | 11 | 11 | 4.8 | 9.7 | 0.03 | 0.41 | 0.03 | 88 | 1012.8 |
| 20260507174503 | 11 | 6 | 3.2 | 14.5 | 0.03 | 0.41 | 0.03 | 89 | 1013.0 |
| 20260507174003 | 11 | 332 | 6.4 | 14.5 | 0.03 | 0.41 | 0.03 | 89 | 1012.9 |
| 20260507173503 | 11 | 314 | 8.0 | 14.5 | 0.03 | 0.41 | 0.03 | 89 | 1013.1 |
| 20260507173004 | 11 | 329 | 8.0 | 12.9 | 0.03 | 0.41 | 0.03 | 89 | 1012.9 |
| 20260507172503 | 11 | 311 | 8.0 | 12.9 | 0.03 | 0.41 | 0.03 | 89 | 1013.0 |
| 20260507172002 | 11 | 342 | 8.0 | 14.5 | 0.03 | 0.41 | 0.03 | 90 | 1013.0 |
| 20260507171503 | 11 | 333 | 4.8 | 14.5 | 0.03 | 0.41 | 0.03 | 90 | 1012.9 |
| 20260507171002 | 11 | 16 | 6.4 | 12.9 | 0.03 | 0.41 | 0.03 | 91 | 1012.8 |
| 20260507170503 | 11 | 45 | 8.0 | 12.9 | 0.00 | 0.38 | 0.00 | 90 | 1013.1 |
| 20260507170004 | 11 | 11 | 4.8 | 9.7 | 0.00 | 0.38 | 0.00 | 90 | 1013.1 |
| 20260507164504 | 11 | 321 | 6.4 | 9.7 | 0.00 | 0.41 | 0.00 | 91 | 1013.1 |
| 20260507164003 | 11 | 6 | 4.8 | 9.7 | 0.00 | 0.41 | 0.00 | 91 | 1013.2 |
| 20260507163503 | 11 | 1 | 6.4 | 11.3 | 0.00 | 0.41 | 0.00 | 90 | 1013.1 |
| 20260507163003 | 11 | 356 | 8.0 | 11.3 | 0.00 | 0.43 | 0.00 | 90 | 1013.1 |
| 20260507162503 | 11 | 338 | 4.8 | 12.9 | 0.00 | 0.43 | 0.00 | 91 | 1013.2 |
| 20260507162003 | 11 | 3 | 8.0 | 12.9 | 0.00 | 0.43 | 0.00 | 91 | 1013.1 |
| 20260507161503 | 11 | 61 | 4.8 | 11.3 | 0.00 | 0.43 | 0.00 | 91 | 1013.1 |
| 20260507161003 | 11 | 344 | 6.4 | 19.3 | 0.00 | 0.43 | 0.00 | 91 | 1013.0 |
| 20260507160503 | 11 | 350 | 11.3 | 19.3 | 0.00 | 0.43 | 0.00 | 91 | 1013.0 |
| 20260507160003 | 11 | 340 | 11.3 | 14.5 | 0.00 | 0.43 | 0.00 | 92 | 1013.1 |
| 20260507155503 | 11 | 4 | 11.3 | 14.5 | 0.00 | 0.43 | 0.00 | 92 | 1013.2 |
| 20260507155004 | 11 | 2 | 9.7 | 14.5 | 0.00 | 0.43 | 0.00 | 92 | 1013.3 |
| 20260507154505 | 11 | 17 | 11.3 | 14.5 | 0.00 | 0.43 | 0.00 | 92 | 1013.3 |
| 20260507153504 | 11 | 338 | 6.4 | 16.1 | 0.00 | 0.43 | 0.00 | 93 | 1013.5 |
| 20260507153004 | 11 | 18 | 12.9 | 19.3 | 0.00 | 0.43 | 0.00 | 93 | 1013.5 |
| 20260507152503 | 11 | 344 | 11.3 | 19.3 | 0.00 | 0.43 | 0.00 | 92 | 1013.6 |
| 20260507151504 | 11 | 355 | 6.4 | 14.5 | 0.00 | 0.43 | 0.00 | 93 | 1013.5 |
| 20260507151003 | 11 | 14 | 9.7 | 14.5 | 0.00 | 0.43 | 0.00 | 92 | 1013.3 |
| 20260507150503 | 11 | 359 | 9.7 | 14.5 | 0.00 | 0.43 | 0.00 | 93 | 1013.5 |
| 20260507150005 | 11 | 2 | 6.4 | 14.5 | 0.00 | 0.43 | 0.00 | 93 | 1013.4 |
| 20260507145003 | 11 | 336 | 8.0 | 16.1 | 0.00 | 0.43 | 0.00 | 93 | 1013.2 |
| 20260507144503 | 12 | 3 | 8.0 | 16.1 | 0.00 | 0.43 | 0.00 | 92 | 1013.2 |
| 20260507144003 | 12 | 1 | 6.4 | 14.5 | 0.00 | 0.43 | 0.00 | 92 | 1013.2 |
| 20260507143503 | 12 | 13 | 6.4 | 11.3 | 0.00 | 0.43 | 0.00 | 91 | 1013.2 |
| 20260507143004 | 12 | 327 | 8.0 | 14.5 | 0.00 | 0.43 | 0.00 | 90 | 1013.2 |
| 20260507142504 | 12 | 345 | 9.7 | 14.5 | 0.00 | 0.43 | 0.00 | 90 | 1013.0 |
| 20260507142003 | 12 | 345 | 8.0 | 11.3 | 0.00 | 0.43 | 0.00 | 91 | 1013.0 |
| 20260507141504 | 12 | 304 | 4.8 | 9.7 | 0.00 | 0.43 | 0.00 | 90 | 1013.2 |
| 20260507141003 | 12 | 305 | 8.0 | 14.5 | 0.00 | 0.43 | 0.00 | 90 | 1013.4 |
| 20260507140503 | 12 | 355 | 6.4 | 14.5 | 0.00 | 0.43 | 0.00 | 90 | 1013.4 |
| 20260507140004 | 12 | 350 | 8.0 | 11.3 | 0.00 | 0.43 | 0.00 | 90 | 1013.2 |
| 20260507135003 | 12 | 354 | 8.0 | 16.1 | 0.00 | 0.43 | 0.00 | 91 | 1012.8 |
| 20260507134504 | 12 | 311 | 6.4 | 16.1 | 0.00 | 0.46 | 0.00 | 90 | 1013.2 |
| 20260507134003 | 12 | 291 | 6.4 | 20.9 | 0.00 | 0.46 | 0.00 | 91 | 1013.5 |
| 20260507133503 | 12 | 250 | 16.1 | 20.9 | 0.00 | 0.46 | 0.00 | 90 | 1013.7 |
| 20260507133003 | 12 | 297 | 9.7 | 19.3 | 0.00 | 0.48 | 0.00 | 91 | 1013.6 |
| 20260507132503 | 12 | 260 | 6.4 | 14.5 | 0.00 | 0.48 | 0.00 | 91 | 1013.5 |
| 20260507132003 | 12 | 266 | 8.0 | 14.5 | 0.00 | 0.48 | 0.00 | 90 | 1013.4 |
| 20260507131003 | 12 | 279 | 4.8 | 12.9 | 0.00 | 0.48 | 0.00 | 90 | 1013.6 |
| 20260507130503 | 12 | 277 | 8.0 | 12.9 | 0.00 | 0.48 | 0.00 | 91 | 1013.8 |
| 20260507130004 | 12 | 267 | 6.4 | 8.0 | 0.00 | 0.48 | 0.00 | 91 | 1013.7 |
| 20260507125503 | 12 | 260 | 4.8 | 12.9 | 0.00 | 0.48 | 0.00 | 90 | 1013.5 |
| 20260507124504 | 12 | 280 | 6.4 | 14.5 | 0.00 | 0.48 | 0.00 | 91 | 1013.5 |
| 20260507124003 | 12 | 267 | 9.7 | 14.5 | 0.00 | 0.48 | 0.00 | 91 | 1013.6 |
| 20260507123503 | 12 | 242 | 3.2 | 4.8 | 0.00 | 0.48 | 0.00 | 93 | 1013.5 |
| 20260507123004 | 12 | 242 | 1.6 | 4.8 | 0.00 | 0.48 | 0.00 | 92 | 1013.6 |
| 20260507122003 | 12 | 242 | 1.6 | 4.8 | 0.00 | 0.48 | 0.00 | 93 | 1013.8 |
| 20260507121504 | 12 | 267 | 1.6 | 4.8 | 0.00 | 0.48 | 0.00 | 94 | 1013.6 |
| 20260507121004 | 12 | 271 | 1.6 | 4.8 | 0.00 | 0.48 | 0.00 | 94 | 1013.5 |
| 20260507120503 | 12 | 271 | 1.6 | 4.8 | 0.00 | 0.48 | 0.00 | 94 | 1013.4 |
| 20260507120004 | 12 | 246 | 1.6 | 11.3 | 0.00 | 0.48 | 0.00 | 94 | 1013.4 |
| 20260507115504 | 12 | 243 | 3.2 | 11.3 | 0.00 | 0.48 | 0.00 | 94 | 1013.6 |
| 20260507115003 | 12 | 268 | 4.8 | 11.3 | 0.00 | 0.48 | 0.00 | 94 | 1013.6 |
| 20260507114504 | 12 | 203 | 3.2 | 8.0 | 0.00 | 0.48 | 0.00 | 94 | 1013.6 |
| 20260507114003 | 12 | 0 | 0.0 | 3.2 | 0.00 | 0.48 | 0.00 | 94 | 1013.4 |
| 20260507113504 | 12 | 175 | 1.6 | 3.2 | 0.00 | 0.48 | 0.00 | 94 | 1013.4 |
| 20260507113004 | 12 | 166 | 1.6 | 8.0 | 0.00 | 0.48 | 0.00 | 94 | 1013.4 |
| 20260507112503 | 12 | 158 | 3.2 | 8.0 | 0.00 | 0.48 | 0.00 | 94 | 1013.3 |
| 20260507112003 | 12 | 155 | 3.2 | 8.0 | 0.00 | 0.48 | 0.00 | 94 | 1013.2 |
| 20260507111504 | 12 | 210 | 0.0 | 8.0 | 0.00 | 0.48 | 0.00 | 94 | 1013.3 |
| 20260507111004 | 12 | 163 | 3.2 | 8.0 | 0.00 | 0.48 | 0.00 | 94 | 1013.0 |
| 20260507110004 | 12 | 162 | 4.8 | 8.0 | 0.00 | 0.48 | 0.00 | 93 | 1013.0 |
| 20260507105503 | 12 | 164 | 4.8 | 8.0 | 0.00 | 0.48 | 0.00 | 94 | 1013.1 |
| 20260507105003 | 12 | 207 | 3.2 | 8.0 | 0.00 | 0.48 | 0.00 | 93 | 1013.0 |
| 20260507104504 | 12 | 211 | 3.2 | 8.0 | 0.00 | 0.48 | 0.00 | 93 | 1013.0 |
| 20260507104003 | 12 | 211 | 1.6 | 8.0 | 0.00 | 0.48 | 0.00 | 93 | 1013.0 |
| 20260507103004 | 12 | 196 | 3.2 | 4.8 | 0.00 | 0.48 | 0.00 | 93 | 1012.8 |
| 20260507102503 | 12 | 196 | 1.6 | 4.8 | 0.00 | 0.48 | 0.00 | 94 | 1012.9 |
| 20260507102003 | 12 | 196 | 3.2 | 4.8 | 0.00 | 0.48 | 0.00 | 94 | 1013.0 |
| 20260507101504 | 12 | 195 | 3.2 | 4.8 | 0.00 | 0.48 | 0.00 | 94 | 1012.9 |
| 20260507101003 | 12 | 193 | 0.0 | 4.8 | 0.00 | 0.48 | 0.00 | 94 | 1013.0 |
| 20260507100503 | 12 | 192 | 3.2 | 4.8 | 0.00 | 0.48 | 0.00 | 94 | 1013.0 |
| 20260507100005 | 12 | 193 | 1.6 | 3.2 | 0.00 | 0.48 | 0.00 | 94 | 1013.0 |
| 20260507095004 | 12 | 0 | 0.0 | 1.6 | 0.00 | 0.48 | 0.00 | 94 | 1012.7 |
| 20260507094504 | 12 | 0 | 0.0 | 1.6 | 0.00 | 0.48 | 0.00 | 94 | 1013.1 |
| 20260507094003 | 12 | 0 | 0.0 | 3.2 | 0.00 | 0.48 | 0.00 | 93 | 1013.1 |
| 20260507093504 | 12 | 192 | 1.6 | 3.2 | 0.00 | 0.48 | 0.00 | 93 | 1013.0 |
| 20260507093003 | 12 | 0 | 0.0 | 3.2 | 0.00 | 0.48 | 0.00 | 93 | 1012.8 |
| 20260507092005 | 12 | 0 | 0.0 | 1.6 | 0.00 | 0.48 | 0.00 | 93 | 1013.1 |
| 20260507091504 | 12 | 193 | 1.6 | 1.6 | 0.00 | 0.48 | 0.00 | 93 | 1013.0 |
| 20260507091003 | 12 | 0 | 0.0 | 3.2 | 0.00 | 0.48 | 0.00 | 92 | 1013.2 |
| 20260507090503 | 12 | 193 | 1.6 | 4.8 | 0.00 | 0.48 | 0.00 | 92 | 1012.9 |
| 20260507085503 | 13 | 192 | 4.8 | 9.7 | 0.00 | 0.48 | 0.00 | 92 | 1012.2 |
| 20260507085003 | 13 | 192 | 3.2 | 9.7 | 0.00 | 0.48 | 0.00 | 92 | 1012.6 |
| 20260507084504 | 13 | 174 | 3.2 | 9.7 | 0.00 | 0.48 | 0.00 | 92 | 1013.0 |
| 20260507084004 | 13 | 175 | 3.2 | 9.7 | 0.00 | 0.48 | 0.00 | 92 | 1012.9 |
| 20260507083504 | 13 | 224 | 8.0 | 11.3 | 0.00 | 0.48 | 0.00 | 92 | 1013.0 |
| 20260507083004 | 13 | 213 | 4.8 | 12.9 | 0.00 | 0.48 | 0.00 | 92 | 1013.0 |
| 20260507082503 | 13 | 186 | 6.4 | 19.3 | 0.00 | 0.48 | 0.00 | 92 | 1013.2 |
| 20260507082004 | 13 | 182 | 11.3 | 19.3 | 0.00 | 0.48 | 0.00 | 92 | 1012.8 |
| 20260507081504 | 13 | 195 | 6.4 | 14.5 | 0.00 | 0.48 | 0.00 | 92 | 1012.9 |
| 20260507081003 | 13 | 215 | 4.8 | 12.9 | 0.00 | 0.48 | 0.00 | 92 | 1013.0 |
| 20260507080503 | 13 | 208 | 9.7 | 12.9 | 0.00 | 0.48 | 0.00 | 92 | 1013.1 |
| 20260507080005 | 13 | 217 | 4.8 | 11.3 | 0.00 | 0.48 | 0.00 | 92 | 1013.0 |
| 20260507075504 | 13 | 196 | 4.8 | 11.3 | 0.00 | 0.48 | 0.00 | 91 | 1013.2 |
| 20260507075003 | 13 | 192 | 6.4 | 14.5 | 0.00 | 0.48 | 0.00 | 91 | 1013.2 |
| 20260507074504 | 13 | 246 | 6.4 | 14.5 | 0.00 | 0.48 | 0.00 | 91 | 1013.1 |
| 20260507074003 | 13 | 255 | 9.7 | 14.5 | 0.00 | 0.48 | 0.00 | 91 | 1013.3 |
| 20260507073004 | 13 | 243 | 9.7 | 14.5 | 0.00 | 0.48 | 0.00 | 91 | 1013.3 |
| 20260507072504 | 13 | 257 | 8.0 | 19.3 | 0.00 | 0.48 | 0.00 | 91 | 1013.2 |
| 20260507072005 | 14 | 307 | 3.2 | 19.3 | 0.00 | 0.48 | 0.00 | 91 | 1013.5 |
| 20260507071004 | 14 | 284 | 6.4 | 16.1 | 0.00 | 0.48 | 0.00 | 91 | 1013.1 |
| 20260507070503 | 14 | 313 | 6.4 | 16.1 | 0.00 | 0.48 | 0.00 | 91 | 1013.2 |
| 20260507070008 | 14 | 306 | 9.7 | 16.1 | 0.00 | 0.48 | 0.00 | 93 | 1013.0 |
| 20260507065503 | 14 | 315 | 6.4 | 9.7 | 0.00 | 0.48 | 0.00 | 93 | 1013.1 |
| 20260507065004 | 14 | 295 | 4.8 | 14.5 | 0.00 | 0.48 | 0.00 | 93 | 1013.0 |
| 20260507064504 | 14 | 232 | 3.2 | 16.1 | 0.00 | 0.48 | 0.00 | 92 | 1012.8 |
| 20260507064003 | 14 | 245 | 9.7 | 16.1 | 0.00 | 0.48 | 0.00 | 92 | 1012.8 |